Starlink 31980

operational
NORAD ID: 59962 Int'l Des: 2024-107 Owner: SPXS Country: US Constellation: starlink
LEOCIRCULAR

About Starlink 31980

Description loading...

Live Position

Loading 3D Globe...

Upcoming Passes

Altitude History

Altitude vs Time

uPlot chart will show altitude changes over time

Two-Line Element Set

1 59962U 24107T 25306.25114930 .00000137 00000-0 16773-4 0 9995
2 59962 53.1612 297.5681 0001558 89.2294 270.8886 15.30178084 80286
Epoch: Nov 2, 2025 • Age: 17 hours

Current Status

Altitude 479.8 km
Velocity 7.63 km/s
Sub-Earth Point -15.65°S, 105.39°E
Launch Date Jun 5, 2024
Age 1.4 years
Type internet

Technical Details

Classification Payload
Mass 730.00 kg
Dry Mass 700.00 kg
Total Mass 730.00 kg
Length 0.30 m
Diameter 4.10 m
Span 29.00 m
Shape Box + pan
Manufacturer SPXS
Bus Type Starlink V2M
Phase Status In Orbit
Owner/State SPXS/US

Large Constellations

Loading constellations...